GFSNE_sfc_dewp_093.txt.gz
Dewpoint
54 54 53 54 55 53 55 53 51 49 47 50 51 54 53 54 53 55 55 52 49 48 48 50 51 52 53 53 54 55 56 57 57 58 58 59 59 59
54 53 54 53 54 55 55 54 54 51 49 48 49 53 54 52 52 52 52 50 48 47 47 47 48 50 50 51 51 52 53 54 55 56 56 57 58 59
55 54 53 53 53 53 54 54 53 53 51 50 50 54 54 55 54 55 53 53 52 47 46 46 46 46 47 48 48 49 50 51 52 53 54 55 57 57
53 56 55 54 54 54 53 53 54 54 51 50 51 52 55 55 53 52 52 52 52 50 47 46 46 45 45 45 46 46 47 48 49 50 51 52 54 55
55 55 55 56 56 55 55 54 54 53 53 53 52 53 53 55 54 54 53 53 53 50 47 46 46 46 45 45 44 45 45 45 46 46 47 48 49 51
56 57 56 56 56 57 56 56 55 55 55 53 53 53 53 54 55 54 54 55 55 53 51 49 48 47 46 46 44 44 45 45 45 44 44 44 44 46
56 55 56 55 50 53 54 56 56 55 54 53 53 53 53 53 53 53 53 53 54 56 55 56 56 55 55 47 48 45 45 44 44 45 45 44 43 43
55 55 56 50 51 45 46 46 52 55 54 52 51 50 50 50 51 52 52 51 50 54 54 54 55 55 55 54 46 44 43 43 44 44 42 40 38 38
53 53 53 53 50 54 47 43 44 43 44 52 51 51 51 51 51 51 51 51 50 52 52 51 43 41 39 40 41 41 41 40 39 38 38 37 37 36
54 53 53 53 53 52 52 52 51 51 49 48 50 52 50 44 46 50 51 51 50 39 38 45 35 32 33 33 37 38 37 37 36 35 34 34 33 33
53 46 38 41 36 39 48 51 50 49 36 39 34 33 33 32 33 38 41 39 45 33 29 33 32 28 27 27 31 32 32 32 32 32 32 32 32 32
34 32 32 34 34 35 41 43 45 44 33 31 29 29 29 29 29 29 31 34 35 31 28 29 28 30 24 26 27 28 29 31 31 31 31 31 31 30
30 29 29 31 31 32 33 34 34 32 30 28 27 26 25 25 24 24 25 26 26 23 26 29 28 28 27 24 27 28 28 28 29 29 29 29 28 28
27 28 28 28 28 27 28 28 28 27 26 23 23 22 23 23 23 23 23 23 23 23 25 28 25 26 26 24 23 26 26 26 27 25 26 25 24 23
27 26 25 25 25 25 24 24 24 23 23 20 20 21 24 25 27 26 25 24 23 23 24 25 25 26 25 24 22 22 22 22 22 20 19 18 18 16
25 25 24 24 23 24 26 26 26 26 24 24 23 24 24 22 23 24 23 22 20 18 19 21 22 22 21 20 20 17 14 15 10 11 12 15 15 17
25 25 24 24 23 23 23 23 24 24 23 23 23 22 21 21 20 21 18 17 15 11 10 12 13 14 16 17 14 10 6 5 6 11 9 10 12 14
23 22 22 21 21 21 20 20 20 19 20 20 20 18 17 16 15 14 14 14 12 9 9 7 10 9 8 8 11 6 5 5 6 7 7 10 11 15
20 19 19 19 19 18 17 17 16 15 15 15 15 15 14 12 13 12 12 10 8 5 3 5 6 7 6 6 6 6 7 7 9 10 10 11 13 14
16 16 16 16 15 14 13 12 12 13 12 11 13 13 13 12 11 9 9 10 7 5 3 2 3 5 7 8 9 10 8 11 11 12 12 13 13 14
13 13 14 13 13 12 13 12 12 12 12 12 12 11 12 10 9 8 8 6 6 3 2 1 2 6 5 8 10 9 9 7 9 11 12 13 13 14
11 10 10 10 10 10 11 11 11 10 10 9 10 10 10 9 7 7 8 7 4 5 2 2 1 2 4 3 4 8 8 10 10 10 11 12 14 14
8 8 8 8 8 8 6 7 6 8 6 7 8 7 8 7 6 6 6 5 3 4 3 3 2 2 2 2 3 7 7 9 9 10 14 12 15 18

GFSNE_sfc_dewp_096.txt.gz
Dewpoint
56 57 55 55 56 53 52 49 47 48 44 49 50 54 54 55 54 56 56 52 49 48 48 50 51 52 53 53 54 55 56 57 57 58 58 59 60 60
53 54 55 53 54 55 54 54 55 52 50 48 50 51 54 51 53 56 55 51 49 48 47 47 48 50 50 51 51 52 53 54 55 55 56 57 58 59
53 54 54 54 53 55 57 57 55 54 51 51 51 51 53 53 53 54 54 54 52 47 46 46 46 46 47 48 48 50 50 51 52 53 54 55 56 57
51 53 53 53 54 54 54 54 53 54 53 51 52 52 53 54 55 54 52 51 54 49 47 46 46 45 45 45 46 46 47 48 48 50 51 52 53 55
53 51 51 53 53 54 54 53 53 53 54 54 54 53 53 53 53 55 56 56 53 50 47 46 46 46 46 45 45 45 45 45 45 46 46 47 49 50
56 55 54 53 54 56 56 56 56 57 56 55 54 53 54 54 55 54 55 55 55 52 49 48 48 47 46 46 45 45 45 45 45 44 44 44 44 46
56 56 57 55 51 52 55 56 56 57 56 56 54 54 54 53 53 54 54 55 56 56 54 55 55 56 55 47 48 46 45 45 44 44 44 43 42 43
55 56 56 51 51 45 44 45 51 55 54 54 53 53 54 54 55 55 55 53 51 55 54 54 55 55 48 41 40 41 43 44 44 44 44 44 42 40
56 55 55 54 51 55 49 44 44 43 42 52 53 54 53 53 53 53 53 53 53 54 52 52 42 34 34 35 38 39 40 40 39 39 38 37 37 36
49 42 43 46 42 40 49 53 52 51 50 50 51 46 37 35 38 42 43 44 46 35 37 38 33 28 30 32 35 35 34 34 34 34 34 34 34 33
33 33 34 34 34 35 41 46 48 43 34 33 33 32 30 30 31 38 38 36 41 35 33 34 32 28 28 28 30 33 33 33 33 33 33 33 33 33
30 30 30 31 31 32 37 39 39 33 33 31 28 27 26 26 26 27 28 33 35 34 27 31 31 29 24 28 29 31 31 31 32 32 32 32 33 33
29 28 29 28 29 29 30 30 30 29 27 26 26 25 25 24 24 25 26 26 26 23 27 30 29 30 28 26 29 30 30 31 31 31 29 28 28 28
29 29 29 27 27 27 27 27 26 26 26 25 25 24 25 25 26 26 27 28 28 27 30 32 30 31 29 28 26 27 27 27 27 26 27 26 25 23
28 27 26 26 27 28 26 28 29 30 28 27 26 26 27 29 31 31 30 29 26 26 28 28 28 30 29 27 25 24 25 23 22 19 19 17 18 17
28 30 28 27 27 27 29 30 30 30 29 27 27 28 28 27 26 26 26 26 25 21 21 21 23 25 24 22 22 19 15 16 10 13 14 16 17 18
31 32 30 29 28 26 26 26 26 26 25 26 25 25 25 25 23 23 21 20 18 13 10 11 13 15 15 15 15 8 7 7 8 13 11 13 15 18
28 27 25 25 24 24 24 23 23 21 22 22 22 21 19 19 18 17 17 16 14 10 10 8 13 13 10 10 12 8 8 8 9 10 11 14 15 19
25 24 23 23 22 21 21 20 19 18 18 18 18 18 17 15 16 15 16 14 11 7 4 6 9 12 12 13 10 7 11 11 13 15 14 15 17 17
21 20 20 20 18 16 15 15 16 17 17 15 17 17 18 16 15 12 13 14 11 6 5 3 4 7 11 13 14 15 10 14 14 15 15 16 17 19
16 15 17 16 16 15 17 17 16 16 16 17 16 15 17 15 13 13 12 9 10 6 4 3 3 7 7 11 15 14 13 9 11 14 14 16 17 17
15 13 13 14 14 14 16 16 16 15 14 14 15 15 15 14 12 11 12 11 8 9 5 4 3 5 7 5 7 11 12 14 15 14 14 14 17 18
14 12 13 13 13 13 11 13 11 13 11 11 12 12 13 13 11 11 11 9 7 7 6 6 6 6 6 4 7 12 12 13 13 15 21 17 17 19

GFSNE_sfc_dewp_099.txt.gz
Dewpoint
58 58 56 55 56 55 55 52 50 47 44 51 52 57 57 57 56 58 58 53 49 48 48 50 52 52 53 53 54 54 55 56 57 57 58 58 59 60
56 56 56 55 55 56 56 56 54 52 48 47 52 53 55 51 54 57 58 53 49 48 47 48 49 50 51 51 52 52 53 54 54 55 56 57 57 58
54 54 53 55 55 55 56 55 54 54 52 51 50 53 53 54 54 55 55 56 55 48 46 46 46 47 48 48 49 50 50 51 52 53 54 55 56 57
52 52 52 50 53 55 54 56 56 55 53 53 52 51 53 52 53 53 51 50 54 49 47 46 47 46 46 46 46 46 47 48 48 49 50 52 53 54
53 53 52 53 53 53 53 53 53 51 53 52 51 51 52 54 55 56 55 56 54 50 46 45 45 45 45 45 45 45 45 45 45 45 46 47 48 50
55 54 54 53 51 52 51 52 53 54 53 53 52 52 53 55 56 55 55 55 55 53 51 48 47 46 45 45 45 45 45 45 45 44 44 43 43 44
56 55 55 53 48 49 51 52 54 54 55 54 54 55 55 55 55 56 55 55 56 57 56 57 57 57 44 41 40 41 42 43 44 44 44 43 42 42
56 57 56 51 51 46 45 45 50 55 55 54 54 54 55 56 56 56 55 54 53 56 55 53 52 36 36 36 38 39 41 41 41 42 43 43 42 40
49 50 52 45 41 43 45 43 43 42 39 50 52 52 52 43 43 50 52 53 52 43 45 47 36 33 34 35 36 36 36 36 37 37 37 36 36 35
36 37 38 37 34 36 41 46 46 35 37 37 35 32 31 31 34 39 40 41 43 37 37 38 33 30 31 32 34 34 34 34 35 35 34 34 34 34
32 32 33 32 32 35 42 45 37 32 32 31 30 29 29 29 29 36 33 35 37 34 29 33 33 30 29 28 31 32 32 32 32 32 33 33 34 33
30 30 30 30 30 32 35 38 30 29 28 28 27 27 27 27 28 28 28 32 32 33 28 29 31 30 26 29 30 32 32 31 30 29 30 29 29 33
29 29 30 29 29 29 30 31 29 29 28 28 27 27 28 27 27 28 28 28 28 26 29 32 31 31 29 27 29 30 31 30 31 30 28 26 26 26
30 30 30 28 29 29 29 28 28 29 30 28 28 28 28 28 29 29 30 29 28 27 29 32 31 32 30 28 27 28 27 28 27 26 26 22 21 21
29 28 28 28 28 28 28 29 30 32 32 30 28 28 29 30 32 32 33 32 28 27 27 30 29 30 30 28 26 25 23 24 19 18 19 17 18 18
30 31 29 28 28 28 30 30 30 30 30 29 28 29 30 29 27 28 27 27 25 21 21 21 21 25 23 21 21 19 13 13 11 13 14 19 19 19
31 31 30 30 27 28 27 27 28 28 27 28 27 26 26 26 23 23 22 20 19 14 11 12 13 13 12 15 15 8 9 9 10 15 13 15 17 21
28 27 27 27 25 25 25 24 23 22 23 22 23 21 19 19 19 18 18 17 14 10 9 10 13 16 12 11 10 8 10 10 11 13 15 17 17 23
25 24 25 24 23 21 21 20 19 19 20 19 19 19 19 17 17 16 17 15 13 9 5 6 9 12 14 14 14 14 15 13 14 16 16 17 19 20
21 20 20 20 18 16 16 16 16 18 18 16 18 18 19 17 17 13 12 14 13 8 7 4 5 7 11 12 14 17 14 16 15 14 16 17 19 22
16 16 18 17 17 16 19 18 18 17 17 18 17 17 18 16 14 14 15 12 12 9 6 5 4 11 8 12 15 14 15 13 14 16 16 17 17 17
16 14 14 15 16 16 17 17 17 16 15 15 16 16 17 15 14 13 13 12 10 10 7 7 6 6 9 6 8 13 13 16 17 20 20 17 17 17
15 13 14 14 13 13 13 14 12 14 12 13 13 13 15 13 12 13 12 10 9 8 8 8 8 8 8 7 9 12 16 15 15 16 21 20 19 19

GFSNE_sfc_dewp_102.txt.gz
Dewpoint
58 57 57 57 56 55 55 55 51 48 48 53 54 55 55 56 55 55 55 52 49 48 48 50 51 52 53 54 54 55 56 56 57 57 57 58 58 59
58 58 57 55 55 55 55 56 55 53 48 49 52 54 56 56 56 56 56 53 49 47 47 47 48 50 51 51 52 53 53 54 55 55 56 57 57 58
56 56 56 55 53 54 55 55 54 54 52 51 51 53 54 54 54 54 56 56 56 48 47 47 47 47 48 48 49 50 51 51 52 53 54 55 56 57
56 55 55 54 54 55 55 55 54 53 52 50 52 52 51 51 52 53 52 52 53 51 48 47 47 46 46 46 46 47 47 48 48 49 50 51 53 54
54 54 53 52 51 51 52 53 54 54 53 52 51 51 52 51 51 51 52 52 51 49 46 46 46 46 46 46 46 46 45 45 45 45 46 46 48 49
53 53 53 53 52 51 51 51 51 53 52 52 52 51 51 51 52 51 51 53 54 54 51 48 47 45 44 43 42 42 42 43 44 44 43 42 42 44
54 54 53 52 49 51 51 52 52 50 51 51 51 51 52 53 53 55 55 55 55 57 57 58 52 43 39 39 39 40 41 42 42 42 42 42 42 42
55 55 55 49 48 43 42 42 47 51 51 52 52 54 54 54 52 52 52 52 51 45 48 50 41 36 35 36 37 37 37 38 38 38 38 38 37 37
42 44 45 40 38 41 42 41 37 37 36 47 50 48 43 36 38 44 48 47 46 40 43 43 36 32 33 34 35 35 35 35 35 35 35 35 34 34
35 35 35 34 34 36 40 38 34 32 33 33 33 32 31 31 33 37 39 40 41 32 32 35 33 30 30 32 33 34 34 33 34 34 34 33 33 33
32 33 32 32 33 36 42 35 31 30 32 32 31 30 30 30 30 36 32 34 34 30 29 30 32 29 29 29 31 32 32 31 31 30 30 30 31 33
31 31 31 31 32 34 34 32 28 28 28 28 28 28 29 29 29 29 29 30 29 29 28 29 30 30 26 29 30 31 32 32 30 28 28 28 27 26
29 29 30 31 30 30 30 29 28 29 28 28 29 29 29 29 28 28 28 27 27 25 28 30 30 30 27 27 28 29 29 28 29 28 26 24 23 23
29 29 29 29 30 30 30 30 30 30 30 29 28 27 27 28 28 24 23 23 23 24 28 30 30 29 30 28 27 29 24 22 22 22 22 22 21 21
28 29 29 29 29 28 29 29 29 29 28 27 26 27 28 29 28 30 27 24 20 21 23 21 23 28 28 25 24 21 20 22 21 20 20 19 21 20
30 29 28 27 26 26 27 28 28 28 28 27 27 28 28 26 23 22 21 22 20 20 22 21 19 21 19 20 19 17 17 16 16 17 18 20 21 22
28 28 27 26 26 25 24 24 24 25 25 26 25 23 20 21 19 21 21 21 17 16 14 15 17 16 16 15 16 12 14 14 14 17 17 19 20 22
26 24 24 24 23 22 22 20 20 19 21 21 19 20 19 19 20 20 21 18 15 15 14 12 14 16 17 15 17 15 15 14 14 16 17 16 16 19
23 22 21 20 19 19 19 18 18 19 19 19 18 19 19 19 17 15 16 17 17 14 10 12 10 12 12 9 17 16 16 16 16 15 16 16 15 17
19 19 18 19 18 17 17 17 16 16 17 17 16 15 15 16 15 16 14 9 14 14 12 9 9 10 8 3 5 14 18 12 14 12 14 17 18 21
16 15 16 16 17 16 17 16 13 12 11 10 11 13 11 13 10 12 12 9 9 12 10 10 10 11 13 15 5 8 15 16 16 16 16 13 14 16
15 14 14 15 14 16 12 12 13 9 11 11 10 7 8 11 10 9 8 7 10 10 10 10 12 13 14 13 9 4 14 17 18 21 22 22 13 10
14 12 11 10 12 10 13 10 9 8 8 10 10 9 8 6 10 9 8 11 12 9 7 8 12 13 12 11 10 11 13 10 14 15 17 22 23 23

GFSNE_sfc_dewp_105.txt.gz
Dewpoint
59 58 58 57 56 53 53 54 49 47 50 52 53 55 54 54 54 55 54 51 48 48 48 50 51 52 53 54 54 55 56 56 57 58 58 59 59 60
58 58 57 56 55 54 54 55 55 53 50 50 53 54 55 55 55 55 55 52 49 47 47 47 48 50 51 51 52 53 53 54 55 55 55 56 57 57
58 57 57 56 56 55 54 55 54 54 52 52 52 53 54 55 56 56 56 56 55 49 48 48 46 47 48 48 49 50 51 52 52 53 54 55 56 56
57 57 56 56 54 54 55 54 54 55 53 51 51 51 52 53 54 54 53 55 56 52 48 47 47 46 46 46 46 46 47 47 48 49 50 51 52 53
56 56 56 56 55 54 54 54 54 54 53 52 51 52 52 52 52 51 52 52 51 49 47 47 46 45 44 43 43 43 44 45 44 45 45 45 46 47
56 56 55 55 55 54 53 52 52 53 52 51 51 51 51 51 51 50 50 52 52 52 49 43 42 41 40 40 41 41 42 42 42 42 42 42 41 43
55 54 55 53 49 50 53 52 51 51 50 50 50 51 51 51 51 52 54 55 53 50 55 48 42 39 38 38 38 39 39 39 40 40 39 39 38 39
53 54 54 47 46 41 41 40 44 52 50 50 49 49 50 53 48 51 51 50 48 41 46 42 38 35 35 36 36 36 36 36 37 37 36 36 36 35
43 46 43 39 39 43 37 36 35 35 33 44 50 46 41 36 37 42 45 46 44 35 40 39 34 31 33 35 35 35 35 35 35 35 34 34 34 33
35 35 35 35 35 40 37 34 33 33 33 33 32 32 32 32 33 37 39 40 35 31 32 34 32 29 31 32 33 33 33 32 32 32 31 32 33 33
32 33 33 33 35 39 35 31 30 30 33 33 33 33 32 31 32 36 32 34 33 29 29 31 31 28 29 29 32 31 31 31 30 29 29 28 25 27
31 31 32 32 33 34 34 32 29 28 29 29 29 30 30 29 28 29 28 27 30 27 28 29 30 29 26 29 30 30 30 28 27 25 25 24 24 21
29 30 31 32 32 32 32 31 29 30 29 29 29 29 29 28 26 26 24 23 22 24 28 30 29 30 27 27 29 22 20 21 21 23 25 21 20 21
28 30 30 31 31 32 31 31 30 30 29 27 26 26 27 28 22 19 19 21 22 22 23 29 28 28 28 28 26 23 19 20 19 19 20 19 21 22
29 30 29 29 29 28 29 29 29 28 26 25 25 26 25 25 24 26 23 21 19 19 21 18 19 20 20 21 19 17 16 19 19 18 18 18 20 20
29 28 26 26 25 25 25 26 27 27 26 25 25 25 24 22 21 20 19 17 17 17 20 21 19 19 17 19 15 16 16 15 15 16 18 20 21 21
27 27 26 25 23 22 22 22 23 23 22 22 20 18 18 19 20 21 20 18 15 14 11 13 16 16 17 16 15 14 14 14 14 17 17 16 19 20
24 22 21 21 20 20 20 19 20 20 20 20 19 20 18 17 18 18 18 17 14 14 12 10 13 17 18 17 18 16 15 15 15 16 16 15 15 18
20 19 18 18 18 18 17 17 17 19 19 18 17 17 17 17 15 14 14 15 15 13 10 11 11 12 8 4 13 16 15 16 16 14 15 16 13 17
17 17 17 17 18 18 17 16 15 15 15 15 14 15 13 15 14 13 13 9 13 13 11 10 10 11 6 -0 1 11 19 11 12 10 13 16 18 20
15 14 14 15 15 14 14 12 10 11 10 9 8 10 6 10 9 10 10 6 8 10 9 9 11 13 13 13 1 5 13 19 17 15 16 11 12 15
12 11 11 11 11 12 8 8 9 8 8 9 6 7 6 7 5 6 6 4 9 8 8 9 10 13 14 15 9 1 11 14 16 17 17 18 16 11
10 9 7 7 8 9 10 6 5 3 4 4 4 6 7 2 8 8 4 9 9 6 7 7 8 10 11 11 10 9 11 9 13 13 13 16 19 22

GFSNE_sfc_dewp_108.txt.gz
Dewpoint
59 58 57 57 57 56 55 53 51 49 49 52 52 54 53 54 53 53 54 51 48 48 48 50 51 53 53 54 54 55 56 57 58 58 58 59 60 60
59 58 57 57 57 56 55 56 54 51 49 52 53 54 55 54 53 54 54 51 48 47 47 47 48 50 51 51 52 53 53 54 55 55 56 56 57 58
59 58 57 57 56 55 55 55 55 54 51 52 52 53 55 55 56 55 56 56 54 47 46 46 46 47 47 48 49 50 50 51 52 53 54 55 56 56
58 58 57 57 56 56 55 54 54 54 52 51 52 52 52 55 55 55 56 56 56 52 49 48 48 47 46 45 45 45 45 46 47 48 49 50 51 52
57 57 57 57 56 56 56 55 54 54 54 52 51 53 53 53 52 53 52 53 53 51 47 42 43 42 41 41 42 42 43 43 43 43 43 43 44 46
56 57 57 57 56 55 55 54 54 54 53 53 52 52 52 52 51 51 50 51 51 47 42 40 40 40 40 40 41 41 41 41 41 40 39 39 39 41
56 56 56 55 51 53 55 55 53 53 53 52 51 49 49 50 49 51 51 52 49 49 47 43 40 38 38 38 38 38 38 38 38 38 37 37 37 37
54 55 55 49 44 42 40 38 47 53 52 51 50 48 48 50 48 51 52 52 49 40 46 37 37 35 36 36 36 36 36 36 36 36 35 35 35 34
43 48 43 40 42 39 36 35 35 34 34 47 49 45 44 38 39 42 45 46 43 34 38 33 33 31 34 35 35 35 34 33 33 33 34 34 33 33
35 36 37 37 37 39 36 34 33 33 33 33 34 32 33 33 35 38 40 37 34 32 33 32 31 29 31 33 33 32 31 31 31 30 29 27 27 31
33 34 34 35 37 37 35 32 31 31 33 33 33 32 31 32 34 36 33 34 32 29 30 32 30 28 29 30 32 32 31 29 27 26 25 25 25 23
31 32 33 34 35 34 32 31 28 29 29 30 30 29 28 29 29 30 31 32 30 28 28 30 30 28 25 29 30 30 26 27 26 23 20 20 22 20
29 30 32 33 33 32 32 30 29 30 30 29 29 29 27 25 26 26 25 26 25 25 27 30 29 30 28 26 28 23 20 21 20 20 20 21 21 21
28 29 31 31 32 31 31 31 30 29 28 27 27 26 27 24 22 22 22 22 22 22 23 28 25 24 25 25 22 22 19 17 18 18 19 20 21 22
29 29 29 29 29 29 29 29 28 28 27 25 24 23 22 20 25 25 24 23 22 22 23 21 22 22 22 20 18 16 16 19 18 18 19 19 20 20
27 26 26 25 24 25 25 25 25 25 24 23 22 22 21 22 21 21 22 21 17 16 18 20 19 20 16 16 15 16 15 14 15 16 18 20 20 21
26 25 24 22 21 21 21 21 22 22 21 21 21 21 20 20 20 21 20 17 15 13 9 13 17 19 18 17 16 15 15 14 14 17 17 16 18 19
22 20 19 19 19 19 19 19 19 19 20 19 19 19 18 18 17 17 18 17 14 12 10 10 15 17 17 16 18 17 15 15 15 15 16 15 15 18
18 18 17 17 17 17 17 17 17 18 18 17 17 17 18 17 16 15 15 15 14 11 9 11 11 12 8 6 12 15 15 16 16 14 15 15 13 16
16 16 15 16 17 16 15 15 14 13 13 13 13 12 13 14 13 12 11 10 13 13 11 11 12 12 8 4 4 11 17 13 12 10 11 14 17 20
13 12 13 13 13 12 10 10 9 9 8 8 8 8 3 9 9 10 10 8 8 9 8 8 10 15 16 12 4 6 12 17 16 13 14 9 11 14
9 9 10 9 9 9 4 4 6 5 5 5 3 2 2 6 5 4 4 6 8 7 7 8 9 11 13 12 9 -0 9 11 13 15 16 15 13 8
6 7 6 6 7 6 4 1 -1 -3 -1 -1 0 2 -2 1 5 3 3 7 7 6 7 6 7 9 9 11 8 7 8 6 11 11 13 15 17 20

GFSNE_sfc_dewp_111.txt.gz
Dewpoint
60 60 58 57 57 56 55 53 51 49 50 52 52 54 54 55 54 54 54 51 49 48 48 49 51 52 53 54 55 56 57 57 58 59 59 60 59 60
59 58 58 57 57 56 56 55 54 52 49 52 52 54 54 53 54 54 54 51 48 47 47 47 48 50 51 51 52 52 53 54 55 55 56 57 57 58
59 58 57 57 56 56 56 56 55 54 50 52 52 54 55 54 54 54 54 54 53 47 46 46 46 47 47 47 47 49 50 50 51 52 53 54 54 54
58 58 57 57 56 56 56 55 55 55 53 51 52 52 53 55 56 56 56 55 56 52 47 47 47 47 45 43 44 45 45 46 46 47 47 48 49 50
58 58 57 57 56 56 55 54 54 55 54 52 52 53 53 53 53 54 54 55 54 44 42 41 42 42 42 42 42 43 43 43 42 41 41 42 43 44
58 58 57 57 56 56 56 55 55 54 54 54 53 53 53 53 53 52 52 51 50 41 40 40 40 40 40 41 41 41 41 41 40 39 38 38 39 40
56 56 57 55 51 53 56 56 55 54 54 53 52 51 51 51 51 52 51 52 48 47 43 41 39 38 38 38 39 39 38 38 38 38 37 36 36 37
55 56 56 49 48 45 45 47 52 54 53 53 52 51 51 51 51 52 51 50 47 40 40 35 36 36 36 37 37 37 36 36 36 35 35 35 34 33
47 52 46 43 44 41 36 36 35 35 36 51 52 51 49 45 45 45 47 48 44 36 40 32 33 32 35 36 35 34 33 33 32 32 33 34 33 32
36 38 40 40 40 40 37 34 33 33 34 34 35 33 33 35 38 40 42 36 33 32 34 30 31 29 32 33 34 33 32 31 30 29 28 25 25 26
33 35 36 37 37 38 34 32 31 31 33 32 32 32 32 33 35 37 34 35 32 30 31 32 29 28 29 30 32 31 30 27 25 23 23 24 24 23
31 32 34 34 34 34 32 31 29 29 30 29 28 28 29 29 29 29 32 33 30 30 30 31 29 28 25 29 29 29 27 27 22 22 22 22 22 22
30 30 32 33 33 33 32 31 30 31 30 29 28 26 26 26 26 26 27 29 29 27 28 31 30 29 28 26 28 25 21 22 21 21 21 23 22 22
28 29 31 31 31 31 30 30 30 29 29 27 27 24 23 22 23 23 24 23 23 22 23 26 27 28 25 24 20 22 20 20 20 19 19 20 20 21
28 28 29 29 29 28 29 29 29 27 26 24 23 23 23 26 26 23 22 23 21 22 23 23 22 21 24 23 18 17 17 19 18 18 19 19 20 20
26 25 25 25 24 24 25 25 25 25 23 22 21 22 23 22 21 22 19 19 17 16 18 21 22 21 17 17 16 16 16 15 15 16 18 20 20 21
24 23 22 22 21 21 21 22 22 22 21 22 21 20 20 20 20 21 19 17 15 12 11 15 18 19 18 17 17 16 16 15 15 18 17 17 18 20
21 19 18 18 18 19 18 19 19 19 20 20 20 19 18 18 18 19 19 17 15 13 13 12 16 18 15 15 17 16 15 15 16 16 16 16 15 18
16 16 16 17 17 17 16 16 15 16 17 16 17 18 18 17 16 16 16 16 14 12 11 13 14 12 9 7 12 15 16 16 16 14 15 15 14 15
14 13 13 14 14 13 13 12 12 12 12 12 12 12 14 14 13 12 12 13 13 12 11 10 11 12 10 7 7 12 16 12 12 11 12 14 16 19
11 11 11 11 10 9 6 6 5 6 7 7 8 8 8 11 10 11 9 7 8 8 7 7 9 14 16 12 6 8 12 15 14 13 13 8 9 13
7 7 8 7 6 5 3 3 3 3 3 5 4 4 4 8 6 7 7 7 7 8 7 7 9 11 13 11 9 0 9 9 11 12 13 14 14 9
-0 3 2 2 3 1 1 -2 -4 -5 -2 -0 -0 1 -4 2 4 4 5 7 6 5 6 5 7 9 9 10 8 5 5 3 9 8 10 11 14 16

GFSNE_sfc_dewp_114.txt.gz
Dewpoint
60 60 59 59 59 58 57 55 53 51 51 53 53 56 56 56 55 55 55 52 49 49 49 50 52 53 53 54 55 56 57 58 59 59 60 60 60 60
59 59 59 59 58 58 57 56 55 53 50 54 54 54 55 55 55 55 55 52 48 47 47 48 49 50 51 51 52 53 53 54 55 56 56 56 57 57
58 58 57 58 57 57 56 56 55 54 51 52 54 55 54 55 54 54 55 55 54 47 46 46 46 46 47 48 48 49 50 51 52 52 53 53 54 54
56 58 58 57 56 56 56 55 54 54 53 51 53 53 54 55 55 54 54 54 55 49 46 46 45 45 45 45 45 45 45 46 47 47 47 47 48 49
57 58 58 57 56 56 56 55 55 54 54 53 53 54 54 54 55 55 55 54 46 43 42 42 42 43 43 43 43 43 43 42 41 41 42 43 44 46
57 58 58 57 56 56 55 55 55 55 54 53 53 52 53 54 54 53 52 52 44 41 41 40 41 41 41 41 41 41 41 40 40 39 39 39 39 40
57 57 57 56 51 53 55 55 55 54 54 53 52 52 52 51 52 53 53 51 46 42 41 40 39 39 39 39 39 39 39 39 38 38 37 37 36 36
55 56 56 50 48 45 46 47 52 54 54 53 53 52 52 53 52 53 52 49 45 44 39 36 37 36 37 37 37 37 37 37 36 36 35 34 34 33
48 52 49 46 46 43 37 37 36 36 37 53 53 53 52 52 52 49 50 50 45 38 37 32 34 33 36 36 35 34 34 33 33 32 34 34 32 32
36 38 42 42 41 41 38 35 34 33 34 36 37 35 34 37 44 46 46 35 34 33 36 30 32 30 32 34 34 33 32 32 30 29 28 25 24 25
34 36 37 38 37 38 36 33 32 31 33 34 34 34 34 34 36 40 37 38 32 31 32 31 30 29 30 31 32 32 30 27 25 23 23 25 23 23
32 32 34 34 34 34 33 32 29 29 29 29 29 29 29 30 29 31 35 35 31 30 30 30 28 28 25 29 28 28 29 23 22 23 24 23 24 26
30 30 32 33 33 32 32 31 30 30 29 27 26 26 26 26 26 27 27 31 32 28 28 32 30 29 27 26 27 23 24 21 22 21 21 23 23 23
26 28 30 31 31 31 30 30 30 29 28 25 23 23 23 23 24 24 25 25 25 25 27 31 30 30 27 26 23 19 19 21 21 20 21 20 19 19
27 28 28 27 27 27 28 27 27 27 26 23 22 22 23 25 24 23 24 24 23 24 25 26 28 27 27 23 19 18 17 18 18 19 20 19 19 19
25 25 25 25 24 24 24 24 24 24 23 22 22 23 25 23 22 23 21 21 19 19 22 23 22 21 19 19 17 16 16 15 15 16 17 19 19 21
23 22 21 21 20 21 21 21 22 23 22 22 22 21 21 21 21 22 20 18 17 17 18 20 21 21 20 18 16 15 14 14 15 17 16 16 16 18
19 18 17 18 17 18 17 18 18 19 20 21 21 21 20 20 19 19 19 17 15 13 14 13 17 18 15 14 16 14 14 15 16 15 15 14 14 17
14 14 14 14 15 15 15 14 14 15 16 16 17 18 17 16 17 16 16 15 14 11 11 13 14 12 9 9 12 18 17 16 15 14 14 13 14 14
12 11 11 11 11 10 10 10 10 11 12 12 12 13 15 14 14 12 13 14 12 10 10 9 10 12 12 11 12 13 16 16 14 13 13 14 15 18
9 9 9 8 7 6 5 6 6 6 6 8 8 9 10 12 11 10 9 9 9 7 6 7 8 15 14 12 11 11 13 12 13 12 13 15 14 14
6 6 5 4 3 3 1 1 3 3 4 5 5 5 7 9 8 8 8 8 7 7 5 7 9 11 12 9 9 9 9 9 10 10 11 14 14 12
-0 2 0 -1 2 0 -1 -3 -5 -6 -2 -0 1 2 -0 5 7 7 8 7 6 5 4 4 6 8 9 7 7 7 6 6 6 6 8 9 11 13

GFSNE_sfc_dewp_117.txt.gz
Dewpoint
62 61 61 61 61 60 59 57 55 52 52 56 56 57 58 58 56 58 57 52 50 49 50 51 52 53 53 54 55 57 58 59 60 60 60 60 61 61
61 61 60 61 61 60 59 58 57 55 52 54 55 56 57 57 56 57 57 53 49 48 48 48 49 51 51 52 52 53 54 55 56 57 58 58 58 59
60 60 59 60 59 59 59 59 57 57 54 54 55 56 57 57 56 57 57 57 55 47 47 47 46 47 48 49 49 50 51 52 53 53 54 55 55 55
59 59 59 58 59 58 58 57 57 56 55 52 54 55 55 56 56 56 56 55 57 47 46 46 46 45 45 45 46 46 47 47 48 49 49 49 49 49
58 57 57 57 58 58 57 56 56 55 55 53 53 55 55 55 55 56 55 56 48 45 43 43 43 44 44 44 44 44 43 43 43 43 44 45 46 47
58 57 57 58 58 57 56 57 55 55 54 53 53 53 54 55 55 54 55 52 48 43 42 42 42 42 42 42 42 42 41 41 41 40 40 40 40 42
57 57 58 57 52 54 57 56 55 54 54 53 53 53 53 53 53 54 54 51 46 44 41 41 41 41 41 41 41 41 40 40 39 39 38 38 38 38
56 57 57 51 51 45 45 47 54 55 54 53 53 52 52 53 53 53 53 48 45 43 40 37 39 38 39 39 39 39 38 38 37 37 36 35 34 34
49 52 54 50 49 46 38 37 36 36 38 54 53 53 53 53 53 53 53 51 49 42 37 33 36 34 36 36 36 36 35 36 36 35 35 34 33 31
35 37 41 43 42 43 41 36 34 34 35 36 39 38 37 41 51 53 53 45 36 35 37 31 33 32 34 35 35 35 34 33 32 30 28 27 27 26
32 34 35 35 36 39 37 34 32 31 34 34 34 34 34 34 35 42 39 40 33 33 34 31 31 30 31 31 34 32 30 30 28 26 27 25 23 24
32 31 32 33 34 34 34 34 30 31 30 30 30 29 29 30 30 32 35 39 33 32 32 30 29 29 26 29 29 30 29 28 27 27 25 25 24 27
28 29 30 31 32 32 32 31 30 29 28 27 26 27 26 25 25 27 28 33 33 29 29 32 30 30 28 25 25 25 26 25 25 23 22 23 24 24
26 27 28 29 29 28 29 29 29 28 27 25 24 24 24 23 25 25 26 26 26 26 28 32 31 30 27 25 21 23 25 25 24 22 23 20 19 19
28 28 27 27 27 27 28 27 26 26 25 23 22 22 24 25 25 26 26 26 26 27 28 31 31 31 30 26 22 23 22 19 18 18 19 19 19 19
26 26 26 25 25 25 26 26 27 26 25 24 23 24 25 24 23 25 23 24 23 23 27 28 29 27 25 25 24 21 17 16 17 17 18 20 21 23
26 26 25 24 23 23 23 23 25 25 25 25 24 24 24 24 23 23 23 23 22 21 21 22 23 22 21 19 18 16 16 16 16 18 16 16 16 18
23 23 23 22 21 21 20 19 20 20 23 24 24 24 23 23 21 19 19 20 20 19 19 19 18 16 14 14 17 14 14 15 16 15 14 17 16 19
20 20 19 20 19 18 17 17 16 17 19 20 21 21 20 17 17 16 16 14 13 11 11 14 15 17 14 13 15 18 17 14 16 16 13 13 15 15
16 16 16 16 15 14 14 14 14 15 15 14 16 17 18 17 16 15 15 16 14 11 10 10 12 14 15 17 17 17 15 18 16 15 14 14 15 18
13 13 14 13 13 12 14 14 15 14 14 15 15 16 17 15 14 13 12 11 11 8 8 9 11 16 14 16 18 16 14 11 12 12 12 15 15 15
12 11 10 10 11 12 13 14 14 14 14 14 15 16 17 15 14 12 13 11 8 9 5 8 10 12 13 11 12 13 11 12 8 8 11 11 15 15
10 9 9 9 9 8 7 10 9 11 10 11 13 13 15 14 13 13 12 9 7 7 6 7 8 10 8 7 9 9 7 8 6 6 11 8 10 11

GFSNE_sfc_dewp_120.txt.gz
Dewpoint
65 65 63 62 62 62 61 59 57 53 53 56 57 59 59 60 58 58 58 52 50 49 49 51 52 53 54 55 56 57 58 58 59 59 60 60 61 61
63 63 63 62 62 62 62 61 60 57 54 55 57 58 59 59 57 58 58 53 49 48 48 48 50 51 52 52 53 53 54 56 57 58 59 59 60 60
62 62 62 62 61 62 61 61 60 58 55 56 57 58 58 58 58 58 57 57 55 48 47 47 48 48 49 49 50 51 52 53 54 55 56 57 57 58
62 61 61 61 60 61 60 60 59 59 57 55 55 56 56 58 57 57 57 55 57 50 47 47 46 46 46 46 47 48 48 49 50 51 52 53 54 54
61 61 61 60 59 60 59 58 59 58 57 56 54 56 56 57 57 57 57 57 52 46 44 45 45 45 45 45 45 46 46 46 45 46 46 47 48 49
60 61 60 59 59 59 58 58 58 57 56 55 54 54 55 55 56 55 55 52 49 45 43 44 44 45 44 43 43 43 43 43 43 43 42 42 42 45
59 59 59 57 52 54 59 58 57 56 55 54 53 53 53 53 53 54 53 51 49 47 44 44 45 44 43 42 43 42 42 41 41 41 41 40 40 41
56 58 58 52 53 45 45 46 53 56 55 54 53 52 53 53 54 53 52 48 45 46 45 42 43 42 41 42 40 40 40 40 40 39 38 38 37 37
38 40 43 49 47 55 40 38 37 37 39 54 53 54 53 54 54 53 53 51 50 44 40 34 37 36 38 38 38 38 38 38 37 37 36 35 34 34
34 35 36 37 37 42 44 39 36 35 35 37 39 38 39 43 53 53 53 47 38 39 39 32 34 32 34 36 36 36 36 36 36 35 34 32 31 30
32 34 34 34 34 37 39 34 32 32 33 33 33 33 33 33 35 47 42 42 35 35 34 32 31 31 32 32 34 34 34 34 33 31 29 29 28 27
30 31 32 32 33 34 35 34 30 30 31 30 30 29 29 29 29 31 36 47 34 33 33 31 30 30 26 29 30 30 30 31 31 31 30 28 28 31
27 28 29 30 31 32 31 30 29 29 28 28 28 27 27 27 26 27 28 32 34 31 32 33 31 30 28 25 25 26 26 27 27 28 28 27 25 26
30 30 30 30 30 29 29 29 28 28 27 25 24 24 24 25 26 27 27 27 28 29 32 32 32 29 26 23 20 24 25 27 28 27 27 26 26 23
29 28 27 28 28 28 28 28 28 27 26 24 22 23 24 25 26 27 27 28 27 28 30 32 31 29 29 24 21 23 24 26 28 27 24 21 21 20
30 31 29 28 28 28 29 30 30 30 28 26 26 27 28 27 26 27 26 26 25 24 28 29 30 31 27 26 25 25 25 23 25 23 24 26 25 25
31 31 30 29 27 28 28 27 28 29 28 28 28 27 27 26 26 28 28 27 25 24 24 26 28 29 29 27 24 24 24 23 24 20 17 17 17 20
27 27 26 26 25 25 25 25 26 25 26 26 26 25 25 24 24 25 25 25 24 24 24 24 25 23 22 21 22 18 17 17 16 14 14 17 16 21
25 25 24 24 23 22 22 22 22 22 24 23 24 24 24 23 22 20 20 19 20 21 21 23 24 22 20 16 16 19 17 15 16 17 15 16 19 17
19 20 20 20 18 17 17 18 19 21 20 19 21 22 23 21 20 18 18 18 15 12 11 12 14 15 20 20 19 16 17 21 20 19 16 16 16 17
16 16 17 17 17 17 20 20 20 20 21 22 21 21 22 20 18 16 16 14 13 10 9 10 14 16 16 20 20 17 15 11 12 14 14 17 17 15
15 14 14 14 15 16 18 19 19 19 19 19 20 21 21 19 17 16 16 14 11 11 8 10 11 12 13 13 15 16 13 14 10 11 11 11 17 19
14 12 13 13 13 13 12 15 14 17 15 16 17 17 19 18 16 16 15 12 10 9 8 8 10 10 8 10 11 11 10 9 8 8 13 9 9 10

GFSNE_sfc_dewp_123.txt.gz
Dewpoint
66 66 64 63 64 62 61 60 59 55 56 55 55 59 60 60 59 60 60 54 49 49 49 51 53 54 55 55 56 57 57 57 58 58 59 59 60 60
64 64 64 64 63 64 63 62 61 59 57 55 57 57 61 60 59 60 60 55 49 48 48 48 50 51 52 53 54 54 55 56 57 57 58 59 59 60
63 63 62 63 63 62 62 62 61 60 58 58 57 59 59 60 60 59 59 58 57 48 48 47 47 48 49 50 50 51 52 53 54 55 56 57 59 60
62 61 62 62 62 62 61 61 61 60 59 56 58 58 59 59 59 59 59 59 59 51 48 47 47 46 47 47 47 48 48 49 50 51 52 54 55 57
62 62 61 61 61 61 61 60 60 59 60 57 57 58 58 58 57 58 58 58 57 48 46 45 46 46 46 46 46 47 47 47 47 48 48 49 50 52
61 61 61 61 60 60 60 60 59 59 59 57 57 55 55 56 57 56 55 57 50 47 44 45 45 45 45 45 45 45 45 46 46 45 45 44 44 46
51 59 60 58 53 55 59 59 59 58 57 56 55 55 54 54 54 55 54 51 48 46 44 44 45 44 44 44 45 45 44 44 44 44 43 43 42 43
40 43 46 49 45 45 46 45 53 58 57 55 55 53 53 54 54 54 53 48 45 46 44 41 44 42 42 43 42 41 42 42 43 43 42 41 40 40
34 35 37 38 39 40 44 38 37 36 35 51 55 54 54 54 54 53 53 50 50 45 41 35 38 36 39 39 40 40 40 40 39 39 38 38 37 36
32 32 33 34 35 37 42 37 35 34 34 36 36 35 35 36 46 54 53 49 40 43 40 33 34 32 35 38 39 39 38 38 37 36 36 35 35 34
30 31 31 31 33 35 37 34 33 32 33 33 32 32 32 32 33 44 43 44 35 35 35 33 32 31 32 32 34 36 36 36 35 35 34 33 32 32
30 30 30 31 31 32 33 33 31 29 31 31 30 29 29 29 29 30 32 44 35 33 33 32 31 30 26 30 31 32 32 33 32 32 32 32 31 30
30 30 30 29 30 30 30 29 29 30 29 28 28 28 28 27 28 28 28 30 33 32 33 33 32 30 28 25 26 27 28 29 30 31 31 31 32 31
29 31 31 29 30 30 30 30 29 29 28 26 25 24 25 26 27 28 28 29 30 31 32 33 32 29 25 22 20 25 26 27 27 27 28 29 29 29
32 31 30 29 28 30 30 30 30 30 28 26 25 25 26 28 28 28 29 29 28 29 31 32 30 28 28 22 21 22 23 26 28 28 27 26 25 22
31 32 31 29 29 30 30 30 31 30 30 29 28 28 30 30 29 30 29 28 25 25 28 31 30 28 24 24 23 23 25 23 28 29 29 30 30 31
30 31 30 29 28 29 29 29 30 30 29 29 28 28 28 28 27 30 29 28 26 25 24 26 27 28 29 28 25 25 25 25 26 26 28 27 29 29
28 27 26 27 26 26 26 26 26 25 26 27 27 26 25 25 25 26 26 27 26 25 25 26 27 25 25 25 27 25 26 25 26 26 26 24 23 25
23 24 24 24 23 21 22 22 22 22 23 24 24 25 24 24 24 23 24 23 23 24 25 27 28 26 22 18 23 25 25 25 23 20 18 20 23 22
19 19 19 20 18 18 18 18 20 21 21 20 22 22 23 21 21 19 19 19 17 16 17 20 22 26 23 21 20 19 21 23 23 21 19 20 21 18
15 15 16 16 16 17 19 21 21 21 21 23 23 22 23 20 19 17 17 17 15 12 12 13 15 21 21 20 17 16 15 12 14 17 16 19 20 19
15 13 13 14 16 15 18 19 19 19 19 20 21 22 22 20 18 17 17 16 12 13 10 11 12 12 17 17 19 17 15 14 12 12 11 11 15 19
13 12 14 13 12 12 12 15 15 17 16 17 17 19 19 19 17 17 16 13 11 11 10 10 11 10 10 12 13 13 12 11 9 12 14 11 9 9

GFSNE_sfc_dewp_126.txt.gz
Dewpoint
63 62 62 62 63 62 61 59 56 53 54 57 58 59 60 61 60 60 60 54 50 49 50 52 54 55 55 56 57 58 58 58 58 58 58 58 59 59
63 63 63 63 63 62 61 61 60 57 55 56 57 57 60 60 59 60 60 55 50 48 48 49 51 53 53 54 54 55 55 56 56 57 57 58 58 59
63 62 62 62 60 59 62 61 61 60 58 58 58 59 59 59 59 59 59 60 59 49 48 47 48 49 50 51 51 52 53 54 54 55 56 56 58 59
62 62 60 60 59 60 61 61 60 60 60 58 58 58 57 58 59 59 59 60 60 54 48 48 48 47 47 48 48 49 50 51 51 52 53 54 56 57
59 61 61 60 59 60 61 61 60 60 60 59 58 58 58 58 57 59 59 59 59 55 48 47 48 47 46 46 46 47 47 48 48 48 48 49 51 53
47 48 50 52 57 61 61 61 60 60 59 59 58 57 56 57 57 56 56 57 51 49 46 48 48 47 46 46 45 46 46 46 46 46 46 45 45 47
40 39 42 42 40 40 45 55 60 59 58 58 57 55 55 54 54 55 55 55 48 46 45 45 45 47 46 45 47 45 45 45 45 46 45 44 44 45
34 35 37 37 37 37 39 39 38 50 57 56 55 54 54 54 55 54 54 48 46 46 44 42 44 42 43 44 43 43 43 44 44 44 44 44 43 43
31 31 32 33 34 35 38 37 35 34 32 40 50 52 53 54 54 54 54 50 51 45 42 36 37 35 38 40 41 41 42 42 43 43 44 43 41 40
30 30 30 31 32 34 38 35 33 33 32 33 32 32 32 33 36 47 53 51 42 43 41 34 33 32 35 38 40 40 40 39 39 39 38 37 36 36
31 30 30 30 31 32 33 34 33 32 33 33 32 32 31 32 32 38 42 43 35 36 35 34 32 31 32 32 35 38 38 37 37 37 36 36 35 35
29 29 29 29 30 30 29 28 28 28 29 30 31 31 31 31 31 30 32 36 35 33 34 32 31 30 27 30 31 32 33 35 35 35 35 35 33 31
28 29 30 28 29 29 30 29 28 28 27 27 27 27 28 28 29 29 30 31 32 32 32 33 31 30 28 25 26 28 31 31 32 32 33 33 32 30
29 30 30 30 29 29 29 30 30 30 29 27 26 26 27 27 28 29 29 29 31 31 33 33 32 29 25 22 21 25 26 27 28 28 29 31 31 31
29 31 30 30 30 28 29 29 28 28 28 26 26 27 28 30 31 30 29 29 29 28 31 32 30 28 27 22 21 22 23 25 27 26 26 27 27 27
27 30 29 28 28 28 27 27 28 29 28 27 27 28 29 28 27 30 28 28 25 25 28 29 29 28 24 24 23 23 24 23 27 26 26 27 27 29
28 27 26 26 25 25 26 24 25 25 26 27 27 26 25 26 26 28 28 26 24 24 24 26 27 27 27 26 23 24 24 25 27 27 27 26 27 29
24 23 23 23 22 21 22 23 22 22 23 25 25 26 25 25 25 25 26 25 24 25 25 26 26 25 24 24 28 24 25 24 26 27 28 25 26 29
19 19 18 19 19 19 19 19 19 20 22 22 22 22 24 24 24 24 24 23 22 22 23 25 27 24 19 17 23 27 24 25 25 25 26 26 26 27
16 17 16 16 16 17 18 19 20 20 20 22 22 20 22 20 19 19 19 21 20 21 22 22 21 24 20 19 18 18 27 24 25 23 23 25 24 24
13 15 14 14 15 15 18 16 20 18 19 21 21 21 21 18 15 17 17 13 16 16 14 16 17 23 22 20 17 17 15 17 19 20 20 21 21 20
12 12 14 12 11 12 13 15 14 15 15 17 18 15 19 20 15 14 13 13 15 15 14 15 15 18 22 17 15 12 15 15 14 13 13 12 15 17
10 12 12 11 9 9 10 10 12 11 10 11 13 16 17 12 18 17 15 14 13 14 15 15 15 15 16 17 16 14 10 11 15 15 15 11 9 9